Weather History for KIMT - August, 2013

Change the Weather History Date:

Tuesday, August 20, 2013

  Actual Average Record
Temperature  
Mean Temperature 74 °F -  
Max Temperature 88 °F 75 °F 90 °F (1955)
Min Temperature 60 °F 51 °F 34 °F (1940)
Cooling Degree Days 9    
Growing Degree Days 24 (Base 50)    
Moisture  
Dew Point 62 °F    
Average Humidity 72    
Maximum Humidity 96    
Minimum Humidity 43    
Precipitation  
Precipitation 0.00 in - - ()
Sea Level Pressure  
Sea Level Pressure 29.96 in    
Wind  
Wind Speed 3 mph (SSW)    
Max Wind Speed 15 mph    
Max Gust Speed 23 mph    
Visibility 8 miles    
Events      
Averages and records for this station are not official NWS values.
T = Trace of Precipitation, MM = Missing Value Source: NWS Daily Summary

Daily Weather History Graph

Daily Weather History Graph

Search for Another Location

Airport or City:

Trip Planner

Search our weather history database for the weather conditions in past years. The results will help you decide how hot, cold, wet, or windy it might be!

Date:

Astronomy

Aug. 20, 2013 Rise Set
Actual Time 5:58 AM CDT 7:51 PM CDT
Civil Twilight 5:26 AM CDT 8:23 PM CDT
Nautical Twilight 4:47 AM CDT 9:02 PM CDT
Astronomical Twilight 4:04 AM CDT 9:45 PM CDT
Moon 7:19 PM CDT (8/20) 5:29 AM CDT (8/20)
Length of Visible Light 14h 56m
Length of Day
13h 52m
Full, 100% of the Moon is Illuminated
Aug 20
Full
Aug 20
Full
Aug 28
Last Quarter
Sep 5
New
Sep 12
First Quarter

Hourly Weather History & Observations

Time (CDT) Temp. Heat Index Dew Point Humidity Pressure Visibility Wind Dir Wind Speed Gust Speed Precip Events Conditions
12:54 AM 63.0 °F - 60.1 °F 90% 29.96 in 9.0 mi Calm Calm - N/A   Clear
1:54 AM 63.0 °F - 61.0 °F 93% 29.96 in 7.0 mi Calm Calm - N/A   Clear
2:54 AM 61.0 °F - 59.0 °F 93% 29.96 in 5.0 mi Calm Calm - N/A   Clear
3:28 AM 60.8 °F - 59.0 °F 94% 29.97 in 1.8 mi Calm Calm - N/A   Clear
3:38 AM 60.8 °F - 59.0 °F 94% 29.97 in 3.0 mi Calm Calm - N/A   Clear
3:54 AM 61.0 °F - 59.0 °F 93% 29.96 in 5.0 mi Calm Calm - N/A   Clear
4:54 AM 61.0 °F - 59.0 °F 93% 29.96 in 6.0 mi Calm Calm - N/A   Clear
5:54 AM 60.1 °F - 59.0 °F 96% 29.98 in 4.0 mi Calm Calm - N/A   Clear
6:07 AM 60.8 °F - 59.0 °F 94% 29.99 in 2.5 mi Calm Calm - N/A   Clear
6:45 AM 60.8 °F - 59.0 °F 94% 30.00 in 3.0 mi Calm Calm - N/A   Partly Cloudy
6:54 AM 63.0 °F - 61.0 °F 93% 30.00 in 5.0 mi Calm Calm - N/A   Scattered Clouds
7:54 AM 70.0 °F - 63.0 °F 78% 30.00 in 10.0 mi Calm Calm - N/A   Clear
8:54 AM 75.0 °F - 63.0 °F 66% 30.00 in 10.0 mi SW 6.9 mph - N/A   Clear
9:54 AM 78.1 °F - 64.0 °F 62% 29.99 in 10.0 mi WSW 5.8 mph - N/A   Clear
10:54 AM 82.9 °F 84.6 °F 64.9 °F 54% 29.98 in 10.0 mi SW 8.1 mph - N/A   Clear
11:54 AM 84.9 °F 85.9 °F 63.0 °F 48% 29.97 in 10.0 mi SW 10.4 mph 18.4 mph N/A   Clear
12:54 PM 87.1 °F 87.5 °F 62.1 °F 43% 29.96 in 10.0 mi SW 9.2 mph 17.3 mph N/A   Partly Cloudy
1:54 PM 88.0 °F 88.7 °F 63.0 °F 43% 29.95 in 10.0 mi SSW 15.0 mph 23.0 mph N/A   Scattered Clouds
2:54 PM 88.0 °F 88.7 °F 63.0 °F 43% 29.94 in 10.0 mi SSW 13.8 mph 21.9 mph N/A   Mostly Cloudy
3:54 PM 88.0 °F 88.7 °F 63.0 °F 43% 29.93 in 10.0 mi SSW 10.4 mph 19.6 mph N/A   Mostly Cloudy
4:54 PM 87.1 °F 88.3 °F 64.0 °F 46% 29.93 in 10.0 mi SSW 9.2 mph - N/A   Partly Cloudy
5:54 PM 84.9 °F 86.1 °F 64.0 °F 49% 29.92 in 10.0 mi South 12.7 mph - N/A   Clear
6:54 PM 82.9 °F 84.6 °F 64.9 °F 54% 29.92 in 10.0 mi South 9.2 mph - N/A   Clear
7:54 PM 79.0 °F - 66.0 °F 64% 29.92 in 10.0 mi South 6.9 mph - N/A   Clear
8:54 PM 77.0 °F - 64.9 °F 66% 29.93 in 10.0 mi South 8.1 mph - N/A   Clear
10:54 PM 73.0 °F - 64.9 °F 76% 29.94 in 10.0 mi South 6.9 mph - N/A   Clear
11:54 PM 72.0 °F - 64.0 °F 76% 29.93 in 10.0 mi South 5.8 mph - N/A   Clear